When you browse on this site, cookies collect data to enhance your experience and personalize the content and advertising you see.
Visit our Privacy Policy to learn more. By continuing to use the site, you agree to this use of cookies and data.

Stündliche Wetter Probark

Heute, 4 Juli, Samstag

Zeit Temperatur Niederschläge Wind Luftdruck Luftfeuchtigkeit
00:00 +14°C° 0 mm 1 m/S 748 mmHg 95%
01:00 +13°C° 0 mm 1 m/S 748 mmHg 95%
02:00 +13°C° 0 mm 1 m/S 748 mmHg 94%
03:00 +13°C° 0 mm 1 m/S 748 mmHg 94%
04:00 +13°C° 0 mm 1 m/S 748 mmHg 93%
05:00 +14°C° 0 mm 2 m/S 749 mmHg 89%
06:00 +16°C° 0 mm 2 m/S 749 mmHg 84%
07:00 +18°C° 0 mm 2 m/S 749 mmHg 79%
08:00 +19°C° 0 mm 3 m/S 749 mmHg 73%
09:00 +21°C° 0 mm 3 m/S 749 mmHg 66%
10:00 +22°C° 0 mm 3 m/S 749 mmHg 59%
11:00 +23°C° 0 mm 4 m/S 749 mmHg 58%
12:00 +25°C° 0 mm 4 m/S 749 mmHg 56%
13:00 +26°C° 0 mm 4 m/S 748 mmHg 55%
14:00 +25°C° 0 mm 4 m/S 748 mmHg 57%
15:00 +25°C° 0 mm 4 m/S 748 mmHg 59%
16:00 +25°C° 0 mm 4 m/S 747 mmHg 61%
17:00 +23°C° 0 mm 4 m/S 747 mmHg 66%
18:00 +22°C° 0 mm 3 m/S 747 mmHg 71%
19:00 +21°C° 0 mm 3 m/S 747 mmHg 77%
20:00 +20°C° 0 mm 3 m/S 747 mmHg 79%
21:00 +19°C° 0 mm 3 m/S 747 mmHg 82%
22:00 +18°C° 0 mm 3 m/S 747 mmHg 84%
23:00 +18°C° 0 mm 3 m/S 747 mmHg 85%

Morgen, 5 Juli, Sonntag

Zeit Temperatur Niederschläge Wind Luftdruck Luftfeuchtigkeit
00:00 +17°C° 0 mm 3 m/S 747 mmHg 86%
01:00 +17°C° 0 mm 3 m/S 747 mmHg 86%
02:00 +17°C° 0 mm 3 m/S 746 mmHg 86%
03:00 +17°C° 0 mm 3 m/S 746 mmHg 86%
04:00 +17°C° 0 mm 3 m/S 746 mmHg 86%
05:00 +18°C° 0 mm 3 m/S 746 mmHg 82%
06:00 +19°C° 0 mm 4 m/S 746 mmHg 78%
07:00 +20°C° 0 mm 5 m/S 746 mmHg 74%
08:00 +21°C° 0 mm 5 m/S 746 mmHg 71%
09:00 +23°C° 0 mm 5 m/S 746 mmHg 68%
10:00 +25°C° 0 mm 5 m/S 746 mmHg 65%
11:00 +25°C° 0.2 mm 5 m/S 746 mmHg 66%
12:00 +24°C° 0.2 mm 6 m/S 745 mmHg 66%
13:00 +24°C° 0.2 mm 6 m/S 745 mmHg 67%
14:00 +24°C° 0.1 mm 6 m/S 745 mmHg 68%
15:00 +25°C° 0.1 mm 5 m/S 745 mmHg 69%
16:00 +25°C° 0.1 mm 5 m/S 744 mmHg 70%
17:00 +23°C° 0.3 mm 5 m/S 744 mmHg 75%
18:00 +22°C° 0.3 mm 4 m/S 744 mmHg 81%
19:00 +21°C° 0.3 mm 4 m/S 744 mmHg 86%
20:00 +21°C° 0.1 mm 4 m/S 744 mmHg 88%
21:00 +20°C° 0.1 mm 4 m/S 743 mmHg 89%
22:00 +20°C° 0.1 mm 4 m/S 743 mmHg 91%
23:00 +20°C° 0.1 mm 4 m/S 743 mmHg 92%

übermorgen, 6 Juli, Montag

Zeit Temperatur Niederschläge Wind Luftdruck Luftfeuchtigkeit
00:00 +19°C° 0.1 mm 4 m/S 743 mmHg 93%
01:00 +19°C° 0.1 mm 4 m/S 743 mmHg 94%
02:00 +19°C° 0.1 mm 4 m/S 742 mmHg 94%
03:00 +19°C° 0.1 mm 3 m/S 742 mmHg 94%
04:00 +19°C° 0.1 mm 3 m/S 742 mmHg 94%
05:00 +19°C° 0.1 mm 3 m/S 742 mmHg 92%
06:00 +20°C° 0.1 mm 4 m/S 742 mmHg 90%
07:00 +20°C° 0.1 mm 4 m/S 742 mmHg 87%
08:00 +20°C° 0.1 mm 4 m/S 742 mmHg 87%
09:00 +19°C° 0.1 mm 4 m/S 742 mmHg 86%
10:00 +19°C° 0.1 mm 4 m/S 742 mmHg 86%
11:00 +20°C° 0 mm 4 m/S 742 mmHg 81%
12:00 +21°C° 0 mm 5 m/S 742 mmHg 76%
13:00 +22°C° 0 mm 6 m/S 742 mmHg 71%
14:00 +22°C° 0.1 mm 6 m/S 742 mmHg 69%
15:00 +22°C° 0.1 mm 6 m/S 742 mmHg 66%
16:00 +22°C° 0.1 mm 6 m/S 742 mmHg 64%
17:00 +21°C° 0.2 mm 5 m/S 742 mmHg 71%
18:00 +19°C° 0.2 mm 4 m/S 742 mmHg 77%
19:00 +18°C° 0.2 mm 3 m/S 742 mmHg 84%
20:00 +16°C° 0.1 mm 2 m/S 743 mmHg 86%
21:00 +15°C° 0.1 mm 2 m/S 743 mmHg 87%
22:00 +14°C° 0.1 mm 1 m/S 743 mmHg 89%
23:00 +13°C° 0 mm 2 m/S 743 mmHg 90%

7 Juli, Dienstag

Zeit Temperatur Niederschläge Wind Luftdruck Luftfeuchtigkeit
00:00 +12°C° 0 mm 2 m/S 744 mmHg 91%
01:00 +11°C° 0 mm 3 m/S 744 mmHg 92%
02:00 +11°C° 0 mm 3 m/S 744 mmHg 91%
03:00 +11°C° 0 mm 3 m/S 744 mmHg 91%
04:00 +11°C° 0 mm 3 m/S 745 mmHg 91%
05:00 +12°C° 0 mm 4 m/S 745 mmHg 86%
06:00 +13°C° 0 mm 5 m/S 745 mmHg 82%
07:00 +14°C° 0 mm 6 m/S 746 mmHg 77%
08:00 +15°C° 0 mm 6 m/S 746 mmHg 72%
09:00 +16°C° 0 mm 6 m/S 746 mmHg 68%
10:00 +17°C° 0 mm 6 m/S 747 mmHg 63%
11:00 +17°C° 0.1 mm 6 m/S 747 mmHg 61%
12:00 +17°C° 0.1 mm 6 m/S 747 mmHg 59%
13:00 +17°C° 0.1 mm 6 m/S 747 mmHg 58%
14:00 +17°C° 0.1 mm 6 m/S 747 mmHg 59%
15:00 +16°C° 0.1 mm 5 m/S 747 mmHg 60%
16:00 +16°C° 0.1 mm 5 m/S 748 mmHg 61%
17:00 +15°C° 0.1 mm 4 m/S 748 mmHg 67%
18:00 +16°C° 0.1 mm 3 m/S 748 mmHg 73%
19:00 +15°C° 0.1 mm 2 m/S 748 mmHg 79%
20:00 +14°C° 0 mm 2 m/S 748 mmHg 83%
21:00 +12°C° 0 mm 2 m/S 748 mmHg 86%
22:00 +10°C° 0 mm 2 m/S 748 mmHg 89%
23:00 +10°C° 0 mm 2 m/S 748 mmHg 89%

8 Juli, Mittwoch

Zeit Temperatur Niederschläge Wind Luftdruck Luftfeuchtigkeit
00:00 +10°C° 0 mm 3 m/S 748 mmHg 90%
01:00 +9°C° 0 mm 3 m/S 748 mmHg 90%
02:00 +9°C° 0 mm 3 m/S 748 mmHg 89%
03:00 +9°C° 0 mm 3 m/S 748 mmHg 89%
04:00 +8°C° 0 mm 4 m/S 748 mmHg 89%
05:00 +10°C° 0.3 mm 4 m/S 748 mmHg 87%
06:00 +10°C° 0.3 mm 5 m/S 748 mmHg 86%
07:00 +12°C° 0.3 mm 5 m/S 748 mmHg 84%
08:00 +13°C° 0.6 mm 6 m/S 748 mmHg 81%
09:00 +14°C° 0.6 mm 6 m/S 748 mmHg 77%
10:00 +15°C° 0.6 mm 7 m/S 748 mmHg 74%
11:00 +15°C° 0.5 mm 7 m/S 748 mmHg 71%
12:00 +16°C° 0.5 mm 7 m/S 748 mmHg 69%
13:00 +16°C° 0.5 mm 7 m/S 748 mmHg 67%
14:00 +16°C° 0.5 mm 6 m/S 748 mmHg 69%
15:00 +16°C° 0.5 mm 6 m/S 749 mmHg 71%
16:00 +16°C° 0.5 mm 6 m/S 749 mmHg 72%
17:00 +15°C° 0.1 mm 5 m/S 749 mmHg 76%
18:00 +14°C° 0.1 mm 4 m/S 749 mmHg 80%
19:00 +14°C° 0.1 mm 3 m/S 749 mmHg 83%
20:00 +14°C° 0 mm 2 m/S 750 mmHg 86%
21:00 +12°C° 0 mm 2 m/S 750 mmHg 89%
22:00 +10°C° 0 mm 2 m/S 750 mmHg 93%
23:00 +10°C° 0 mm 2 m/S 750 mmHg 92%

9 Juli, Donnerstag

Zeit Temperatur Niederschläge Wind Luftdruck Luftfeuchtigkeit
00:00 +10°C° 0 mm 2 m/S 750 mmHg 91%
01:00 +9°C° 0 mm 2 m/S 750 mmHg 91%
02:00 +9°C° 0 mm 2 m/S 750 mmHg 90%
03:00 +9°C° 0 mm 2 m/S 750 mmHg 90%
04:00 +9°C° 0 mm 2 m/S 750 mmHg 90%
05:00 +11°C° 0 mm 3 m/S 750 mmHg 84%
06:00 +13°C° 0 mm 3 m/S 750 mmHg 78%
07:00 +14°C° 0 mm 4 m/S 750 mmHg 73%
08:00 +17°C° 0 mm 4 m/S 749 mmHg 68%
09:00 +19°C° 0 mm 5 m/S 749 mmHg 63%
10:00 +20°C° 0 mm 5 m/S 749 mmHg 58%
11:00 +21°C° 0 mm 5 m/S 749 mmHg 58%
12:00 +21°C° 0 mm 5 m/S 748 mmHg 59%
13:00 +21°C° 0 mm 5 m/S 748 mmHg 59%
14:00 +20°C° 0 mm 4 m/S 747 mmHg 64%
15:00 +18°C° 0 mm 4 m/S 747 mmHg 70%
16:00 +17°C° 0 mm 3 m/S 747 mmHg 75%
17:00 +17°C° 0.2 mm 3 m/S 746 mmHg 81%
18:00 +16°C° 0.2 mm 3 m/S 746 mmHg 87%
19:00 +16°C° 0.2 mm 3 m/S 746 mmHg 93%
20:00 +16°C° 0.1 mm 3 m/S 746 mmHg 94%
21:00 +14°C° 0.1 mm 3 m/S 746 mmHg 95%
22:00 +14°C° 0.1 mm 3 m/S 746 mmHg 96%
23:00 +13°C° 0 mm 3 m/S 746 mmHg 96%
Mehr zeigen